Sign-in with your pilot id or email, or register

ICAO: EPWR Name / Country: Wroclaw Strachowice / Poland
Latitude: 51.1027 Longitude: 16.8858
Total Arrivals:
Strict Standards: Non-static method AirportData::getarrflights() should not be called statically, assuming $this from incompatible context in /var/www/customers/vh-7192/web/home/phpvms/core/templates/airport_info.tpl on line 18
1
Total Departures:
Strict Standards: Non-static method AirportData::getdeptflights() should not be called statically, assuming $this from incompatible context in /var/www/customers/vh-7192/web/home/phpvms/core/templates/airport_info.tpl on line 21
1
Latest Arrival: MTA11P (LHBP-EPWR) Tibor Berces Latest Departure: MTA11P (EPWR-LHBP) Tibor Berces
Metar: EPWR 241430Z 15006KT 9999 -RA BKN024 BKN030 02/01 Q0995
More info

Charts for EPWR


NOTAM


Warning: file_get_contents(http://api.vateud.net/notams/EPWR.json): failed to open stream: HTTP request failed! HTTP/1.1 404 Not Found in /var/www/customers/vh-7192/web/home/phpvms/core/common/NOTAMSData.class.php on line 18

Warning: Invalid argument supplied for foreach() in /var/www/customers/vh-7192/web/home/phpvms/core/common/NOTAMSData.class.php on line 22

Wroclaw Strachowice